contact:dominique.lefevre@mio.osupytheas.fr, maurice.libes@osupytheas.fr, didier.mallarino@osupytheas.fr
Project:EMSO http://www.emso-fr.org/EMSO-France
Depth: 2436.0 m
Title:EMSO Ligure Ouest : Data MII capteur CSTAR
DateTime,Latitude,Longitude,Instrument_Serial,Reference_Counts,Signal_Counts,Corrected_Signal_raw_counts,Calculated_Beam_c_inverse_meters,Internal_thermistor_counts
DateTime,Latitude,Longitude,Instrument_Serial,Reference_Counts,Signal_Counts,Corrected_Signal_raw_counts,Calculated_Beam_c_inverse_meters,Internal_thermistor_counts
2021-10-16T00:02:37,42.805,6.029,CST-1368DR,5148,6898,14341,0.341,551
2021-10-16T00:05:39,42.805,6.029,CST-1368DR,5148,6898,14341,0.341,551
2021-10-16T00:08:40,42.805,6.029,CST-1368DR,5148,6897,14339,0.341,551
2021-10-16T00:11:42,42.805,6.029,CST-1368DR,5148,6897,14339,0.341,551
2021-10-16T00:14:43,42.805,6.029,CST-1368DR,5148,6897,14338,0.342,551
2021-10-16T00:17:45,42.805,6.029,CST-1368DR,5148,6897,14339,0.341,551
2021-10-16T00:20:46,42.805,6.029,CST-1368DR,5148,6897,14338,0.342,550
2021-10-16T00:23:48,42.805,6.029,CST-1368DR,5148,6897,14338,0.342,551
2021-10-16T00:26:50,42.805,6.029,CST-1368DR,5148,6897,14339,0.341,551
2021-10-16T00:29:51,42.805,6.029,CST-1368DR,5148,6897,14339,0.341,551
2021-10-16T00:32:53,42.805,6.029,CST-1368DR,5148,6895,14335,0.342,551
2021-10-16T00:35:54,42.805,6.029,CST-1368DR,5148,6897,14338,0.342,551
2021-10-16T00:38:56,42.805,6.029,CST-1368DR,5148,6898,14341,0.341,551
2021-10-16T00:41:58,42.805,6.029,CST-1368DR,5148,6897,14338,0.342,551
2021-10-16T00:44:59,42.805,6.029,CST-1368DR,5147,6897,14341,0.341,551
2021-10-16T00:48:01,42.805,6.029,CST-1368DR,5147,6896,14338,0.342,551
2021-10-16T00:51:02,42.805,6.029,CST-1368DR,5147,6897,14341,0.341,551
2021-10-16T00:54:04,42.805,6.029,CST-1368DR,5147,6896,14339,0.341,551
2021-10-16T00:57:05,42.805,6.029,CST-1368DR,5147,6897,14341,0.341,551
2021-10-16T01:00:07,42.805,6.029,CST-1368DR,5147,6896,14339,0.341,551
2021-10-16T01:03:09,42.805,6.029,CST-1368DR,5147,6896,14339,0.341,551
2021-10-16T01:06:10,42.805,6.029,CST-1368DR,5147,6897,14342,0.340,551
2021-10-16T01:09:12,42.805,6.029,CST-1368DR,5147,6896,14338,0.342,551
2021-10-16T01:12:13,42.805,6.029,CST-1368DR,5147,6896,14339,0.341,551
2021-10-16T01:15:15,42.805,6.029,CST-1368DR,5147,6896,14339,0.341,551
2021-10-16T01:18:16,42.805,6.029,CST-1368DR,5147,6895,14338,0.342,551
2021-10-16T01:21:18,42.805,6.029,CST-1368DR,5147,6897,14341,0.341,551
2021-10-16T01:24:20,42.805,6.029,CST-1368DR,5147,6896,14339,0.341,551
2021-10-16T01:27:21,42.805,6.029,CST-1368DR,5147,6896,14340,0.341,551
2021-10-16T01:30:23,42.805,6.029,CST-1368DR,5147,6897,14341,0.341,551
2021-10-16T01:33:24,42.805,6.029,CST-1368DR,5147,6896,14339,0.341,551
2021-10-16T01:36:26,42.805,6.029,CST-1368DR,5147,6896,14340,0.341,551
2021-10-16T01:39:28,42.805,6.029,CST-1368DR,5147,6896,14338,0.342,551
2021-10-16T01:42:29,42.805,6.029,CST-1368DR,5147,6897,14341,0.341,551
2021-10-16T01:45:31,42.805,6.029,CST-1368DR,5147,6897,14341,0.341,551
2021-10-16T01:48:32,42.805,6.029,CST-1368DR,5147,6892,14332,0.343,551
2021-10-16T01:51:34,42.805,6.029,CST-1368DR,5147,6896,14338,0.342,551
2021-10-16T01:54:35,42.805,6.029,CST-1368DR,5147,6895,14337,0.342,551
2021-10-16T01:57:37,42.805,6.029,CST-1368DR,5147,6897,14341,0.341,551
2021-10-16T02:00:39,42.805,6.029,CST-1368DR,5147,6894,14335,0.342,551
2021-10-16T02:03:40,42.805,6.029,CST-1368DR,5147,6897,14342,0.340,551
2021-10-16T02:06:42,42.805,6.029,CST-1368DR,5147,6897,14341,0.341,551
2021-10-16T02:09:43,42.805,6.029,CST-1368DR,5147,6897,14341,0.341,551
2021-10-16T02:12:45,42.805,6.029,CST-1368DR,5147,6895,14337,0.342,551
2021-10-16T02:15:47,42.805,6.029,CST-1368DR,5147,6897,14341,0.341,551
2021-10-16T02:18:48,42.805,6.029,CST-1368DR,5147,6897,14341,0.341,551
2021-10-16T02:21:50,42.805,6.029,CST-1368DR,5147,6896,14339,0.341,551
2021-10-16T02:24:51,42.805,6.029,CST-1368DR,5147,6896,14339,0.341,551
2021-10-16T02:27:53,42.805,6.029,CST-1368DR,5147,6897,14341,0.341,551
2021-10-16T02:30:54,42.805,6.029,CST-1368DR,5147,6896,14340,0.341,551
2021-10-16T02:33:56,42.805,6.029,CST-1368DR,5147,6896,14339,0.341,551
2021-10-16T02:36:58,42.805,6.029,CST-1368DR,5147,6896,14339,0.341,551
2021-10-16T02:39:59,42.805,6.029,CST-1368DR,5147,6897,14341,0.341,551
2021-10-16T02:43:01,42.805,6.029,CST-1368DR,5147,6893,14333,0.343,551
2021-10-16T02:46:02,42.805,6.029,CST-1368DR,5147,6894,14336,0.342,551
2021-10-16T02:49:04,42.805,6.029,CST-1368DR,5147,6896,14339,0.341,551
2021-10-16T02:52:05,42.805,6.029,CST-1368DR,5147,6896,14339,0.341,551
2021-10-16T02:55:07,42.805,6.029,CST-1368DR,5147,6896,14338,0.342,551
2021-10-16T02:58:09,42.805,6.029,CST-1368DR,5147,6897,14341,0.341,551
2021-10-16T03:01:10,42.805,6.029,CST-1368DR,5147,6895,14337,0.342,551
2021-10-16T03:04:12,42.805,6.029,CST-1368DR,5147,6896,14339,0.341,551
2021-10-16T03:07:13,42.805,6.029,CST-1368DR,5147,6897,14341,0.341,551
2021-10-16T03:10:15,42.805,6.029,CST-1368DR,5147,6896,14339,0.341,551
2021-10-16T03:13:17,42.805,6.029,CST-1368DR,5147,6897,14341,0.341,551
2021-10-16T03:16:18,42.805,6.029,CST-1368DR,5147,6895,14337,0.342,551
2021-10-16T03:19:20,42.805,6.029,CST-1368DR,5147,6896,14338,0.342,551
2021-10-16T03:22:21,42.805,6.029,CST-1368DR,5147,6896,14339,0.341,551
2021-10-16T03:25:23,42.805,6.029,CST-1368DR,5147,6896,14338,0.342,551
2021-10-16T03:28:24,42.805,6.029,CST-1368DR,5147,6895,14338,0.342,551
2021-10-16T03:31:26,42.805,6.029,CST-1368DR,5147,6896,14339,0.341,551
2021-10-16T03:34:28,42.805,6.029,CST-1368DR,5147,6896,14340,0.341,551
2021-10-16T03:37:29,42.805,6.029,CST-1368DR,5147,6896,14339,0.341,551
2021-10-16T03:40:31,42.805,6.029,CST-1368DR,5147,6896,14340,0.341,551
2021-10-16T03:43:32,42.805,6.029,CST-1368DR,5147,6897,14341,0.341,551
2021-10-16T03:46:34,42.805,6.029,CST-1368DR,5147,6896,14339,0.341,551
2021-10-16T03:49:36,42.805,6.029,CST-1368DR,5147,6896,14340,0.341,551
2021-10-16T03:52:37,42.805,6.029,CST-1368DR,5147,6896,14339,0.341,551
2021-10-16T03:55:39,42.805,6.029,CST-1368DR,5147,6893,14334,0.343,551
2021-10-16T03:58:40,42.805,6.029,CST-1368DR,5147,6894,14336,0.342,551
2021-10-16T04:01:42,42.805,6.029,CST-1368DR,5147,6896,14339,0.341,551
2021-10-16T04:04:43,42.805,6.029,CST-1368DR,5147,6896,14339,0.341,551
2021-10-16T04:07:45,42.805,6.029,CST-1368DR,5147,6897,14341,0.341,551
2021-10-16T04:10:47,42.805,6.029,CST-1368DR,5147,6897,14341,0.341,551
2021-10-16T04:13:48,42.805,6.029,CST-1368DR,5147,6896,14339,0.341,551
2021-10-16T04:16:50,42.805,6.029,CST-1368DR,5147,6892,14332,0.343,551
2021-10-16T04:19:51,42.805,6.029,CST-1368DR,5147,6895,14337,0.342,551
2021-10-16T04:22:53,42.805,6.029,CST-1368DR,5147,6895,14338,0.342,551
2021-10-16T04:25:55,42.805,6.029,CST-1368DR,5147,6896,14339,0.341,551
2021-10-16T04:28:56,42.805,6.029,CST-1368DR,5147,6895,14337,0.342,551
2021-10-16T04:31:58,42.805,6.029,CST-1368DR,5147,6896,14339,0.341,551
2021-10-16T04:34:59,42.805,6.029,CST-1368DR,5147,6896,14338,0.342,551
2021-10-16T04:38:01,42.805,6.029,CST-1368DR,5147,6894,14335,0.342,551
2021-10-16T04:41:02,42.805,6.029,CST-1368DR,5147,6895,14337,0.342,551
2021-10-16T04:44:04,42.805,6.029,CST-1368DR,5147,6896,14339,0.341,551
2021-10-16T04:47:06,42.805,6.029,CST-1368DR,5147,6896,14338,0.342,551
2021-10-16T04:50:07,42.805,6.029,CST-1368DR,5147,6896,14339,0.341,551
2021-10-16T04:53:09,42.805,6.029,CST-1368DR,5147,6895,14338,0.342,551
2021-10-16T04:56:10,42.805,6.029,CST-1368DR,5147,6896,14339,0.341,551
2021-10-16T04:59:12,42.805,6.029,CST-1368DR,5147,6896,14339,0.341,551
2021-10-16T05:02:13,42.805,6.029,CST-1368DR,5147,6895,14337,0.342,551
2021-10-16T05:05:15,42.805,6.029,CST-1368DR,5147,6895,14338,0.342,551
2021-10-16T05:08:17,42.805,6.029,CST-1368DR,5147,6896,14339,0.341,551
2021-10-16T05:11:18,42.805,6.029,CST-1368DR,5147,6895,14337,0.342,551
2021-10-16T05:14:20,42.805,6.029,CST-1368DR,5147,6895,14338,0.342,551
2021-10-16T05:17:21,42.805,6.029,CST-1368DR,5147,6895,14337,0.342,551
2021-10-16T05:20:23,42.805,6.029,CST-1368DR,5147,6895,14338,0.342,551
2021-10-16T05:23:25,42.805,6.029,CST-1368DR,5147,6895,14337,0.342,551
2021-10-16T05:26:26,42.805,6.029,CST-1368DR,5147,6895,14337,0.342,551
2021-10-16T05:29:28,42.805,6.029,CST-1368DR,5147,6895,14337,0.342,551
2021-10-16T05:32:29,42.805,6.029,CST-1368DR,5147,6895,14338,0.342,551
2021-10-16T05:35:31,42.805,6.029,CST-1368DR,5147,6894,14336,0.342,551
2021-10-16T05:38:32,42.805,6.029,CST-1368DR,5147,6895,14337,0.342,551
2021-10-16T05:41:34,42.805,6.029,CST-1368DR,5147,6894,14334,0.343,551
2021-10-16T05:44:36,42.805,6.029,CST-1368DR,5147,6895,14337,0.342,551
2021-10-16T05:47:37,42.805,6.029,CST-1368DR,5147,6894,14335,0.342,551
2021-10-16T05:50:39,42.805,6.029,CST-1368DR,5147,6896,14338,0.342,551
2021-10-16T05:53:40,42.805,6.029,CST-1368DR,5147,6895,14337,0.342,551
2021-10-16T05:56:42,42.805,6.029,CST-1368DR,5147,6895,14337,0.342,551
2021-10-16T05:59:44,42.805,6.029,CST-1368DR,5147,6894,14336,0.342,551
2021-10-16T06:02:45,42.805,6.029,CST-1368DR,5147,6895,14337,0.342,551
2021-10-16T06:05:47,42.805,6.029,CST-1368DR,5147,6896,14338,0.342,551
2021-10-16T06:08:48,42.805,6.029,CST-1368DR,5147,6894,14336,0.342,551
2021-10-16T06:11:50,42.805,6.029,CST-1368DR,5147,6894,14335,0.342,551
2021-10-16T06:14:51,42.805,6.029,CST-1368DR,5147,6895,14337,0.342,551
2021-10-16T06:17:53,42.805,6.029,CST-1368DR,5147,6895,14338,0.342,551
2021-10-16T06:20:55,42.805,6.029,CST-1368DR,5147,6896,14338,0.342,551
2021-10-16T06:23:56,42.805,6.029,CST-1368DR,5147,6893,14333,0.343,551
2021-10-16T06:26:58,42.805,6.029,CST-1368DR,5147,6895,14338,0.342,551
2021-10-16T06:29:59,42.805,6.029,CST-1368DR,5147,6894,14335,0.342,551
2021-10-16T06:33:01,42.805,6.029,CST-1368DR,5147,6895,14337,0.342,551
2021-10-16T06:36:02,42.805,6.029,CST-1368DR,5147,6894,14335,0.342,550
2021-10-16T06:39:04,42.805,6.029,CST-1368DR,5147,6887,14321,0.346,551
2021-10-16T06:42:06,42.805,6.029,CST-1368DR,5147,6893,14334,0.343,551
2021-10-16T06:45:07,42.805,6.029,CST-1368DR,5147,6893,14333,0.343,551
2021-10-16T06:48:09,42.805,6.029,CST-1368DR,5147,6891,14330,0.344,551
2021-10-16T06:51:10,42.805,6.029,CST-1368DR,5147,6894,14335,0.342,551
2021-10-16T06:54:12,42.805,6.029,CST-1368DR,5147,6894,14335,0.342,551
2021-10-16T06:57:14,42.805,6.029,CST-1368DR,5147,6894,14334,0.343,551
2021-10-16T07:00:15,42.805,6.029,CST-1368DR,5147,6894,14335,0.342,551
2021-10-16T07:03:17,42.805,6.029,CST-1368DR,5147,6894,14335,0.342,551
2021-10-16T07:06:18,42.805,6.029,CST-1368DR,5147,6894,14335,0.342,551
2021-10-16T07:09:20,42.805,6.029,CST-1368DR,5147,6894,14335,0.342,551
2021-10-16T07:12:21,42.805,6.029,CST-1368DR,5147,6894,14336,0.342,551
2021-10-16T07:15:23,42.805,6.029,CST-1368DR,5147,6888,14322,0.346,551
2021-10-16T07:18:25,42.805,6.029,CST-1368DR,5147,6895,14337,0.342,551
2021-10-16T07:21:26,42.805,6.029,CST-1368DR,5147,6895,14337,0.342,551
2021-10-16T07:24:28,42.805,6.029,CST-1368DR,5147,6894,14334,0.343,551
2021-10-16T07:27:29,42.805,6.029,CST-1368DR,5147,6893,14334,0.343,551
2021-10-16T07:30:31,42.805,6.029,CST-1368DR,5147,6893,14334,0.343,550
2021-10-16T07:33:32,42.805,6.029,CST-1368DR,5147,6894,14335,0.342,551
2021-10-16T07:36:34,42.805,6.029,CST-1368DR,5147,6894,14336,0.342,551
2021-10-16T07:39:36,42.805,6.029,CST-1368DR,5147,6894,14336,0.342,551
2021-10-16T07:42:37,42.805,6.029,CST-1368DR,5147,6895,14338,0.342,551
2021-10-16T07:45:39,42.805,6.029,CST-1368DR,5147,6894,14336,0.342,551
2021-10-16T07:48:40,42.805,6.029,CST-1368DR,5147,6895,14337,0.342,551
2021-10-16T07:51:42,42.805,6.029,CST-1368DR,5147,6895,14337,0.342,551
2021-10-16T07:54:44,42.805,6.029,CST-1368DR,5147,6894,14336,0.342,551
2021-10-16T07:57:45,42.805,6.029,CST-1368DR,5147,6896,14338,0.342,551
2021-10-16T08:00:47,42.805,6.029,CST-1368DR,5147,6895,14337,0.342,551
2021-10-16T08:03:48,42.805,6.029,CST-1368DR,5147,6896,14338,0.342,551
2021-10-16T08:06:50,42.805,6.029,CST-1368DR,5147,6895,14337,0.342,551
2021-10-16T08:09:51,42.805,6.029,CST-1368DR,5147,6896,14338,0.342,551
2021-10-16T08:12:53,42.805,6.029,CST-1368DR,5147,6881,14307,0.350,550
2021-10-16T08:15:55,42.805,6.029,CST-1368DR,5147,6896,14339,0.341,551
2021-10-16T08:18:56,42.805,6.029,CST-1368DR,5147,6895,14338,0.342,551
2021-10-16T08:21:58,42.805,6.029,CST-1368DR,5147,6896,14339,0.341,551
2021-10-16T08:24:59,42.805,6.029,CST-1368DR,5147,6896,14340,0.341,551
2021-10-16T08:28:01,42.805,6.029,CST-1368DR,5147,6896,14339,0.341,551
2021-10-16T08:31:02,42.805,6.029,CST-1368DR,5147,6896,14338,0.342,551
2021-10-16T08:34:04,42.805,6.029,CST-1368DR,5147,6894,14334,0.343,551
2021-10-16T08:37:06,42.805,6.029,CST-1368DR,5147,6896,14340,0.341,551
2021-10-16T08:40:07,42.805,6.029,CST-1368DR,5147,6897,14341,0.341,551
2021-10-16T08:43:09,42.805,6.029,CST-1368DR,5147,6894,14335,0.342,551
2021-10-16T08:46:10,42.805,6.029,CST-1368DR,5147,6896,14340,0.341,551
2021-10-16T08:49:12,42.805,6.029,CST-1368DR,5147,6896,14340,0.341,551
2021-10-16T08:52:14,42.805,6.029,CST-1368DR,5147,6896,14339,0.341,551
2021-10-16T08:55:15,42.805,6.029,CST-1368DR,5147,6893,14332,0.343,551
2021-10-16T08:58:17,42.805,6.029,CST-1368DR,5147,6895,14338,0.342,551
2021-10-16T09:01:18,42.805,6.029,CST-1368DR,5147,6895,14337,0.342,551
2021-10-16T09:04:20,42.805,6.029,CST-1368DR,5147,6895,14337,0.342,551
2021-10-16T09:07:21,42.805,6.029,CST-1368DR,5147,6895,14337,0.342,551
2021-10-16T09:10:23,42.805,6.029,CST-1368DR,5147,6896,14339,0.341,551
2021-10-16T09:13:25,42.805,6.029,CST-1368DR,5147,6896,14339,0.341,551
2021-10-16T09:16:26,42.805,6.029,CST-1368DR,5147,6896,14338,0.342,551
2021-10-16T09:19:28,42.805,6.029,CST-1368DR,5147,6895,14338,0.342,551
2021-10-16T09:22:29,42.805,6.029,CST-1368DR,5147,6895,14338,0.342,551
2021-10-16T09:25:31,42.805,6.029,CST-1368DR,5147,6896,14339,0.341,551
2021-10-16T09:28:33,42.805,6.029,CST-1368DR,5147,6896,14338,0.342,551
2021-10-16T09:31:34,42.805,6.029,CST-1368DR,5147,6895,14337,0.342,551
2021-10-16T09:34:36,42.805,6.029,CST-1368DR,5147,6895,14338,0.342,551
2021-10-16T09:37:37,42.805,6.029,CST-1368DR,5147,6896,14340,0.341,551
2021-10-16T09:40:39,42.805,6.029,CST-1368DR,5147,6896,14338,0.342,551
2021-10-16T09:43:40,42.805,6.029,CST-1368DR,5147,6896,14338,0.342,551
2021-10-16T09:46:42,42.805,6.029,CST-1368DR,5147,6896,14338,0.342,550
2021-10-16T09:49:44,42.805,6.029,CST-1368DR,5147,6896,14339,0.341,551
2021-10-16T09:52:45,42.805,6.029,CST-1368DR,5147,6895,14338,0.342,551
2021-10-16T09:55:47,42.805,6.029,CST-1368DR,5147,6895,14337,0.342,551
2021-10-16T09:58:48,42.805,6.029,CST-1368DR,5147,6896,14338,0.342,551
2021-10-16T10:01:50,42.805,6.029,CST-1368DR,5147,6895,14338,0.342,551
2021-10-16T10:04:51,42.805,6.029,CST-1368DR,5147,6893,14333,0.343,551
2021-10-16T10:07:53,42.805,6.029,CST-1368DR,5147,6895,14337,0.342,551
2021-10-16T10:10:55,42.805,6.029,CST-1368DR,5147,6895,14338,0.342,551
2021-10-16T10:13:56,42.805,6.029,CST-1368DR,5146,6895,14340,0.341,551
2021-10-16T10:16:58,42.805,6.029,CST-1368DR,5146,6895,14340,0.341,551
2021-10-16T10:19:59,42.805,6.029,CST-1368DR,5147,6895,14337,0.342,551
2021-10-16T10:23:01,42.805,6.029,CST-1368DR,5147,6895,14337,0.342,551
2021-10-16T10:26:03,42.805,6.029,CST-1368DR,5147,6895,14337,0.342,551
2021-10-16T10:29:04,42.805,6.029,CST-1368DR,5147,6894,14335,0.342,551
2021-10-16T10:32:06,42.805,6.029,CST-1368DR,5146,6895,14340,0.341,551
2021-10-16T10:35:07,42.805,6.029,CST-1368DR,5146,6895,14340,0.341,551
2021-10-16T10:38:09,42.805,6.029,CST-1368DR,5146,6895,14340,0.341,551
2021-10-16T10:41:10,42.805,6.029,CST-1368DR,5146,6895,14340,0.341,551
2021-10-16T10:44:12,42.805,6.029,CST-1368DR,5146,6894,14339,0.341,551
2021-10-16T10:47:14,42.805,6.029,CST-1368DR,5147,6895,14338,0.342,551
2021-10-16T10:50:15,42.805,6.029,CST-1368DR,5146,6895,14340,0.341,551
2021-10-16T10:53:17,42.805,6.029,CST-1368DR,5146,6895,14340,0.341,551
2021-10-16T10:56:18,42.805,6.029,CST-1368DR,5146,6895,14341,0.341,551
2021-10-16T10:59:20,42.805,6.029,CST-1368DR,5146,6895,14340,0.341,551
2021-10-16T11:02:22,42.805,6.029,CST-1368DR,5147,6894,14335,0.342,551
2021-10-16T11:05:23,42.805,6.029,CST-1368DR,5146,6893,14335,0.342,551
2021-10-16T11:08:25,42.805,6.029,CST-1368DR,5147,6894,14335,0.342,551
2021-10-16T11:11:26,42.805,6.029,CST-1368DR,5146,6895,14340,0.341,551
2021-10-16T11:14:28,42.805,6.029,CST-1368DR,5147,6895,14337,0.342,551
2021-10-16T11:17:29,42.805,6.029,CST-1368DR,5146,6895,14340,0.341,551
2021-10-16T11:20:31,42.805,6.029,CST-1368DR,5147,6894,14336,0.342,551
2021-10-16T11:23:33,42.805,6.029,CST-1368DR,5147,6895,14337,0.342,551
2021-10-16T11:26:34,42.805,6.029,CST-1368DR,5147,6895,14338,0.342,551
2021-10-16T11:29:36,42.805,6.029,CST-1368DR,5146,6896,14342,0.340,551
2021-10-16T11:32:37,42.805,6.029,CST-1368DR,5146,6896,14341,0.341,551
2021-10-16T11:35:39,42.805,6.029,CST-1368DR,5147,6894,14336,0.342,551
2021-10-16T11:38:40,42.805,6.029,CST-1368DR,5146,6895,14340,0.341,551
2021-10-16T11:41:42,42.805,6.029,CST-1368DR,5146,6894,14339,0.341,551
2021-10-16T11:44:44,42.805,6.029,CST-1368DR,5146,6895,14341,0.341,551
2021-10-16T11:47:45,42.805,6.029,CST-1368DR,5146,6895,14340,0.341,551
2021-10-16T11:50:47,42.805,6.029,CST-1368DR,5146,6894,14339,0.341,551
2021-10-16T11:53:48,42.805,6.029,CST-1368DR,5147,6895,14337,0.342,551
2021-10-16T11:56:50,42.805,6.029,CST-1368DR,5146,6893,14336,0.342,551
2021-10-16T11:59:52,42.805,6.029,CST-1368DR,5146,6894,14337,0.342,551
2021-10-16T12:02:53,42.805,6.029,CST-1368DR,5146,6894,14337,0.342,551
2021-10-16T12:05:55,42.805,6.029,CST-1368DR,5146,6894,14339,0.341,551
2021-10-16T12:08:56,42.805,6.029,CST-1368DR,5146,6895,14340,0.341,551
2021-10-16T12:11:58,42.805,6.029,CST-1368DR,5146,6895,14340,0.341,551
2021-10-16T12:14:59,42.805,6.029,CST-1368DR,5146,6892,14334,0.343,551
2021-10-16T12:18:01,42.805,6.029,CST-1368DR,5146,6894,14338,0.342,551
2021-10-16T12:21:03,42.805,6.029,CST-1368DR,5146,6894,14339,0.341,551
2021-10-16T12:24:04,42.805,6.029,CST-1368DR,5146,6893,14336,0.342,551
2021-10-16T12:27:06,42.805,6.029,CST-1368DR,5146,6895,14340,0.341,551
2021-10-16T12:30:07,42.805,6.029,CST-1368DR,5146,6894,14337,0.342,551
2021-10-16T12:33:09,42.805,6.029,CST-1368DR,5146,6895,14340,0.341,551
2021-10-16T12:36:10,42.805,6.029,CST-1368DR,5146,6893,14336,0.342,551
2021-10-16T12:39:12,42.805,6.029,CST-1368DR,5146,6895,14340,0.341,551
2021-10-16T12:42:14,42.805,6.029,CST-1368DR,5146,6894,14337,0.342,551
2021-10-16T12:45:15,42.805,6.029,CST-1368DR,5146,6894,14339,0.341,551
2021-10-16T12:48:17,42.805,6.029,CST-1368DR,5146,6893,14336,0.342,551
2021-10-16T12:51:18,42.805,6.029,CST-1368DR,5146,6894,14337,0.342,551
2021-10-16T12:54:20,42.805,6.029,CST-1368DR,5146,6893,14335,0.342,551
2021-10-16T12:57:22,42.805,6.029,CST-1368DR,5146,6894,14337,0.342,551
2021-10-16T13:00:23,42.805,6.029,CST-1368DR,5146,6894,14338,0.342,551
2021-10-16T13:03:25,42.805,6.029,CST-1368DR,5146,6894,14337,0.342,551
2021-10-16T13:06:26,42.805,6.029,CST-1368DR,5146,6894,14337,0.342,551
2021-10-16T13:09:28,42.805,6.029,CST-1368DR,5146,6891,14332,0.343,551
2021-10-16T13:12:29,42.805,6.029,CST-1368DR,5146,6895,14340,0.341,551
2021-10-16T13:15:31,42.805,6.029,CST-1368DR,5146,6893,14336,0.342,551
2021-10-16T13:18:33,42.805,6.029,CST-1368DR,5146,6893,14336,0.342,551
2021-10-16T13:21:34,42.805,6.029,CST-1368DR,5146,6895,14340,0.341,551
2021-10-16T13:24:36,42.805,6.029,CST-1368DR,5146,6894,14337,0.342,551
2021-10-16T13:27:37,42.805,6.029,CST-1368DR,5146,6895,14340,0.341,551
2021-10-16T13:30:39,42.805,6.029,CST-1368DR,5146,6894,14339,0.341,551
2021-10-16T13:33:40,42.805,6.029,CST-1368DR,5146,6894,14337,0.342,551
2021-10-16T13:36:42,42.805,6.029,CST-1368DR,5146,6893,14336,0.342,551
2021-10-16T13:39:44,42.805,6.029,CST-1368DR,5146,6894,14337,0.342,551
2021-10-16T13:42:45,42.805,6.029,CST-1368DR,5146,6893,14336,0.342,551
2021-10-16T13:45:47,42.805,6.029,CST-1368DR,5146,6894,14337,0.342,551
2021-10-16T13:48:48,42.805,6.029,CST-1368DR,5146,6892,14334,0.343,551
2021-10-16T13:51:50,42.805,6.029,CST-1368DR,5146,6895,14341,0.341,551
2021-10-16T13:54:52,42.805,6.029,CST-1368DR,5146,6894,14337,0.342,551
2021-10-16T13:57:53,42.805,6.029,CST-1368DR,5146,6894,14337,0.342,551
2021-10-16T14:00:55,42.805,6.029,CST-1368DR,5146,6894,14337,0.342,551
2021-10-16T14:03:56,42.805,6.029,CST-1368DR,5146,6894,14338,0.342,551
2021-10-16T14:06:58,42.805,6.029,CST-1368DR,5146,6893,14335,0.342,551
2021-10-16T14:09:59,42.805,6.029,CST-1368DR,5146,6893,14336,0.342,551
2021-10-16T14:13:01,42.805,6.029,CST-1368DR,5146,6894,14337,0.342,551
2021-10-16T14:16:03,42.805,6.029,CST-1368DR,5146,6894,14337,0.342,551
2021-10-16T14:19:04,42.805,6.029,CST-1368DR,5146,6893,14335,0.342,551
2021-10-16T14:22:06,42.805,6.029,CST-1368DR,5146,6893,14336,0.342,551
2021-10-16T14:25:07,42.805,6.029,CST-1368DR,5146,6893,14335,0.342,551
2021-10-16T14:28:09,42.805,6.029,CST-1368DR,5146,6892,14333,0.343,551
2021-10-16T14:31:11,42.805,6.029,CST-1368DR,5146,6892,14333,0.343,551
2021-10-16T14:34:12,42.805,6.029,CST-1368DR,5146,6893,14336,0.342,551
2021-10-16T14:37:14,42.805,6.029,CST-1368DR,5146,6893,14335,0.342,551
2021-10-16T14:40:15,42.805,6.029,CST-1368DR,5146,6893,14336,0.342,551
2021-10-16T14:43:17,42.805,6.029,CST-1368DR,5146,6893,14335,0.342,551
2021-10-16T14:46:18,42.805,6.029,CST-1368DR,5146,6893,14336,0.342,551
2021-10-16T14:49:20,42.805,6.029,CST-1368DR,5146,6890,14330,0.344,551
2021-10-16T14:52:22,42.805,6.029,CST-1368DR,5146,6888,14326,0.345,551
2021-10-16T14:55:23,42.805,6.029,CST-1368DR,5146,6891,14331,0.343,551
2021-10-16T14:58:25,42.805,6.029,CST-1368DR,5146,6892,14333,0.343,551
2021-10-16T15:01:26,42.805,6.029,CST-1368DR,5146,6891,14332,0.343,551
2021-10-16T15:04:28,42.805,6.029,CST-1368DR,5146,6890,14330,0.344,551
2021-10-16T15:07:29,42.805,6.029,CST-1368DR,5146,6891,14331,0.343,551
2021-10-16T15:10:31,42.805,6.029,CST-1368DR,5146,6891,14331,0.343,551
2021-10-16T15:13:33,42.805,6.029,CST-1368DR,5146,6891,14331,0.343,551
2021-10-16T15:16:34,42.805,6.029,CST-1368DR,5146,6891,14331,0.343,551
2021-10-16T15:19:36,42.805,6.029,CST-1368DR,5146,6891,14332,0.343,551
2021-10-16T15:22:37,42.805,6.029,CST-1368DR,5146,6890,14330,0.344,551
2021-10-16T15:25:39,42.805,6.029,CST-1368DR,5146,6889,14327,0.345,551
2021-10-16T15:28:41,42.805,6.029,CST-1368DR,5146,6892,14333,0.343,551
2021-10-16T15:31:42,42.805,6.029,CST-1368DR,5146,6891,14331,0.343,551
2021-10-16T15:34:44,42.805,6.029,CST-1368DR,5146,6891,14331,0.343,551
2021-10-16T15:37:45,42.805,6.029,CST-1368DR,5146,6891,14331,0.343,551
2021-10-16T15:40:47,42.805,6.029,CST-1368DR,5146,6891,14332,0.343,551
2021-10-16T15:43:48,42.805,6.029,CST-1368DR,5146,6890,14330,0.344,551
2021-10-16T15:46:50,42.805,6.029,CST-1368DR,5146,6890,14330,0.344,551
2021-10-16T15:49:52,42.805,6.029,CST-1368DR,5146,6891,14331,0.343,551
2021-10-16T15:52:53,42.805,6.029,CST-1368DR,5146,6890,14330,0.344,551
2021-10-16T15:55:55,42.805,6.029,CST-1368DR,5146,6890,14330,0.344,550
2021-10-16T15:58:56,42.805,6.029,CST-1368DR,5146,6891,14332,0.343,551
2021-10-16T16:01:58,42.805,6.029,CST-1368DR,5146,6890,14330,0.344,550
2021-10-16T16:05:00,42.805,6.029,CST-1368DR,5146,6891,14332,0.343,551
2021-10-16T16:08:01,42.805,6.029,CST-1368DR,5146,6891,14331,0.343,551
2021-10-16T16:11:03,42.805,6.029,CST-1368DR,5146,6892,14333,0.343,551
2021-10-16T16:14:04,42.805,6.029,CST-1368DR,5146,6890,14330,0.344,551
2021-10-16T16:17:06,42.805,6.029,CST-1368DR,5146,6892,14333,0.343,551
2021-10-16T16:20:07,42.805,6.029,CST-1368DR,5146,6891,14331,0.343,551
2021-10-16T16:23:09,42.805,6.029,CST-1368DR,5146,6891,14332,0.343,551
2021-10-16T16:26:11,42.805,6.029,CST-1368DR,5146,6890,14330,0.344,551
2021-10-16T16:29:12,42.805,6.029,CST-1368DR,5146,6891,14332,0.343,551
2021-10-16T16:32:14,42.805,6.029,CST-1368DR,5146,6883,14316,0.348,551
2021-10-16T16:35:15,42.805,6.029,CST-1368DR,5146,6892,14333,0.343,551
2021-10-16T16:38:17,42.805,6.029,CST-1368DR,5146,6891,14331,0.343,551
2021-10-16T16:41:18,42.805,6.029,CST-1368DR,5146,6890,14329,0.344,551
2021-10-16T16:44:20,42.805,6.029,CST-1368DR,5146,6892,14333,0.343,551
2021-10-16T16:47:22,42.805,6.029,CST-1368DR,5146,6890,14330,0.344,551
2021-10-16T16:50:23,42.805,6.029,CST-1368DR,5146,6891,14332,0.343,551
2021-10-16T16:53:25,42.805,6.029,CST-1368DR,5146,6891,14331,0.343,550